EDT,Max TemperatureF,Mean TemperatureF,Min TemperatureF,Max Dew PointF,MeanDew PointF,Min DewpointF,Max Humidity, Mean Humidity, Min Humidity, Max Sea Level PressureIn, Mean Sea Level PressureIn, Min Sea Level PressureIn, Max VisibilityMiles, Mean VisibilityMiles, Min VisibilityMiles, Max Wind SpeedMPH, Mean Wind SpeedMPH, Max Gust SpeedMPH,PrecipitationIn, CloudCover, Events, WindDirDegrees
2012-9-1,86,79,72,74,71,69,93,77,61,30.17,30.12,30.07,10,9,2,9,2,14,0.14,3,Rain-Thunderstorm,199
2012-9-2,89,79,69,72,69,64,97,77,57,30.09,30.02,29.91,10,7,1,24,5,35,1.88,7,Rain-Thunderstorm,56
2012-9-3,86,79,71,72,70,67,93,75,57,29.99,29.96,29.91,10,7,1,16,3,21,0.51,4,Rain-Thunderstorm,112
2012-9-4,86,79,71,70,70,69,93,77,61,29.97,29.91,29.85,10,9,7,15,4,22,T,6,Rain,173
2012-9-5,87,78,69,70,69,65,97,74,51,29.93,29.88,29.84,10,7,1,8,1,12,T,4,Rain,338
2012-9-6,88,79,69,70,68,64,97,72,46,29.96,29.92,29.88,10,9,5,12,3,16,0.00,1,,237
2012-9-7,87,77,67,70,67,64,97,73,48,30.01,29.93,29.75,10,6,2,12,3,33,0.00,1,,182
2012-9-8,76,66,56,66,58,54,93,78,63,29.95,29.80,29.66,10,9,2,10,5,16,0.94,4,Rain,257
2012-9-9,74,63,52,57,54,49,93,69,44,30.08,29.98,29.92,10,7,0,9,2,14,0.00,4,Fog,245
2012-9-10,74,62,49,54,49,43,100,68,35,30.24,30.18,30.09,10,5,0,13,2,17,0.00,1,Fog,349
2012-9-11,78,64,49,54,49,43,100,66,31,30.35,30.29,30.24,10,5,0,9,1,16,0.00,0,Fog,170
2012-9-12,82,66,49,61,53,48,100,69,37,30.36,30.30,30.26,10,7,0,13,1,17,0.00,1,Fog,217
2012-9-13,84,70,56,65,58,54,93,67,40,30.37,30.30,30.24,10,8,4,8,1,12,0.00,0,,208
2012-9-14,84,70,56,62,58,53,97,70,43,30.29,30.24,30.16,10,9,5,15,4,22,0.01,3,,318
2012-9-15,73,61,49,54,50,45,100,69,38,30.36,30.30,30.21,10,6,0,10,1,14,0.00,1,Fog,338
2012-9-16,75,62,49,53,49,46,100,68,36,30.22,30.18,30.09,10,6,0,9,1,14,0.00,2,Fog,38
2012-9-17,77,63,48,64,53,46,100,72,43,30.11,30.03,29.86,10,5,0,13,3,20,0.15,4,Fog-Rain,162
2012-9-18,69,62,55,64,61,47,100,82,63,29.98,29.72,29.63,10,7,0,22,5,30,1.87,7,Fog-Rain,221
2012-9-19,66,55,43,46,41,33,93,62,31,30.22,30.15,30.01,10,10,10,10,1,18,0.00,1,,315
2012-9-20,76,58,40,53,45,39,100,68,36,30.15,30.09,29.99,10,6,0,16,5,21,0.00,2,Fog,172
2012-9-21,76,69,61,58,55,52,78,61,43,30.04,29.96,29.81,10,10,10,14,6,20,0.00,3,,199
2012-9-22,73,59,45,57,47,33,73,52,31,30.15,29.92,29.78,10,10,10,30,11,46,T,4,Rain,256
2012-9-23,64,51,38,47,41,36,92,66,39,30.25,30.21,30.16,10,10,10,13,2,24,0.00,4,,277
2012-9-24,65,52,39,43,39,35,100,67,34,30.33,30.23,30.14,10,10,9,13,2,18,0.00,1,,196
2012-9-25,66,53,39,55,46,37,93,74,55,30.17,30.12,30.07,10,10,10,16,5,23,T,4,,168
2012-9-26,77,68,58,63,59,55,93,75,57,30.15,30.10,30.05,10,9,2,18,7,25,0.09,5,Rain-Thunderstorm,200
2012-9-27,71,66,61,66,63,61,100,92,84,30.19,30.14,30.10,10,4,0,13,2,22,0.49,7,Fog-Rain-Thunderstorm,180
2012-9-28,64,58,52,63,55,50,100,82,63,30.17,30.13,30.08,10,5,1,9,3,16,0.00,6,,341
2012-9-29,69,58,46,52,47,43,100,71,42,30.12,30.08,29.98,10,3,0,8,1,12,0.00,3,Fog,335
2012-9-30,71,58,45,50,47,43,93,67,40,29.97,29.90,29.85,10,8,5,13,3,17,0.00,1,,318